[ ตารางข้อมูล ] [ Min-Max ] [ วันนี้4 ] [ วันนี้2 ] [ เทียบ3วัน A ] [ เทียบ4วัน B ]   

วันนี้2   [ ◀ ช่วงเก่ากว่า ] [ ช่วงที่ 229 ] [ ช่วงใหม่กว่า ▶ ] [ ล่าสุด ]    [ 3 ชั่วโมง ] [ 6 ชั่วโมง ] [ 12 ชั่วโมง ] [ 24 ชั่วโมง ]   วันนี้2

อุณภูมิตู้ Knockdown4529  ราย 3 ชั่วโมง  ที่วัดได้ ในช่วงวันเวลา 07/04/2026 (17:37) ถึง 07/04/2026 (20:37) 
ความชื้นในตู้ Knockdown4529  ราย 3 ชั่วโมง  ที่วัดได้ ในช่วงวันเวลา 07/04/2026 (17:37) ถึง 07/04/2026 (20:37) 

 
DS18B20SHTC3 
IDDate d/m/Y & Timedata1
สูง
data2
ต่ำ
data3
นอก
temp
pcb
hum
pcb
Time
 9739  07/04/2026 20:36:21  31.3  31.4  30.0  31.2  69.6  20:36 
 9738  07/04/2026 20:31:39  31.4  31.4  29.8  31.3  69.5  20:31 
 9737  07/04/2026 20:26:58  31.4  31.5  29.9  31.4  69.4  20:26 
 9736  07/04/2026 20:22:15  31.4  31.5  30.2  31.4  69.4  20:22 
 9735  07/04/2026 20:17:33  31.4  31.6  30.4  31.5  69.4  20:17 
 9734  07/04/2026 20:12:51  31.5  31.6  30.5  31.5  69.4  20:12 
 9733  07/04/2026 20:08:10  31.5  31.6  30.5  31.6  69.4  20:08 
 9732  07/04/2026 20:03:28  31.5  31.6  30.4  31.5  69.4  20:03 
 9731  07/04/2026 19:58:46  31.5  31.6  30.4  31.4  69.6  19:58 
 9730  07/04/2026 19:54:05  31.6  31.7  30.5  31.5  69.6  19:54 
 9729  07/04/2026 19:49:23  31.6  31.7  30.5  31.6  69.5  19:49 
 9728  07/04/2026 19:44:41  31.6  31.8  30.7  31.6  69.4  19:44 
 9727  07/04/2026 19:39:59  31.7  31.8  30.7  31.7  69.5  19:39 
 9726  07/04/2026 19:35:17  31.7  31.8  30.7  31.6  69.4  19:35 
 9725  07/04/2026 19:30:36  31.8  31.8  30.7  31.7  69.4  19:30 
 9724  07/04/2026 19:25:54  31.8  31.8  30.7  31.7  69.2  19:25 
 9723  07/04/2026 19:21:13  31.8  31.9  30.7  31.7  69.1  19:21 
 9722  07/04/2026 19:16:31  31.8  31.9  30.7  31.8  69.2  19:16 
 9721  07/04/2026 19:11:49  31.8  31.9  30.7  31.6  69.1  19:11 
 9720  07/04/2026 19:07:07  31.9  31.9  30.7  31.8  69.0  19:07 
 9719  07/04/2026 19:02:25  31.9  31.9  30.9  31.8  69.0  19:02 
 9718  07/04/2026 18:57:42  31.9  32.0  30.9  31.9  68.9  18:57 
 9717  07/04/2026 18:53:00  31.9  32.0  30.8  31.9  68.9  18:53 
 9716  07/04/2026 18:48:18  32.0  32.0  30.8  32.0  68.8  18:48 

Data every 5 minute.


ใช้เวลาประมวลผล 0.00316 วินาที